[[{"header":{"parameterUnit":"m.s-1","parameterCategory":2,"la1":30.2991,"la2":30.254,"lo1":-89.0895,"lo2":-89.0444,"dy":0.0017,"dx":0.0017,"nx":28,"ny":28,"refTime":"2025-09-12T03:00:00:Z","depth":"0","parameterNumber":2,"parameterNumberName":"U-component_of_CURRENTS"},"data":[0,0,0,0,0,0,0,0,0,0,0,0,0,0,0,0,0,0,0,0,0,0,0,0,0,0,0,0,0,0,0,0,0,0,0,0,0,0,0,0,0,0,0,0,0,0,0,0,0,0,0,0,0,0,0,0,0,0,0.1303,0.1303,0,0.1311,0.1311,0.1311,0.1309,0.1309,0.1309,0.1309,0.1319,0.1319,0.1319,0,0,0,0,0,0,0,0,0,0,0,0,0,0.1336,0.1335,0.1303,0.1303,0.1303,0.1311,0.1311,0.1311,0.1309,0.1309,0.1309,0.1309,0.1319,0.1319,0.1319,0,0,0,0,0,0,0,0,0,0,0,0,0,0.1329,0.1335,0.1303,0.1304,0.1305,0.1311,0.1311,0.1311,0.1309,0.1309,0.1309,0.1309,0.1319,0.1319,0.1319,0.1322,0,0,0.1321,0.1321,0,0,0,0,0,0,0,0,0.1329,0.1328,0.1304,0.1304,0.1305,0.1311,0.1327,0.1316,0.1309,0.1305,0.1309,0.1309,0.1317,0.1318,0.1317,0.1322,0.1323,0.1321,0.1321,0.1321,0.1321,0,0,0,0,0,0,0,0.133,0.1328,0.1304,0.1304,0.1305,0.1323,0.1321,0.1325,0.131,0.1306,0.1306,0.131,0.1317,0.1316,0.1317,0.1323,0.1321,0.1321,0.1321,0.1321,0.1359,0.1359,0,0,0,0,0,0,0.133,0.1328,0.1304,0.1305,0.132,0.1322,0.132,0.1307,0.131,0.1311,0.131,0.131,0.1316,0.1317,0.1317,0.1354,0.1321,0.1321,0.1322,0.1358,0.1359,0.136,0,0,0,0,0,0,0.133,0.1327,0.1304,0.1319,0.1318,0.1321,0.1307,0.1308,0.131,0.1313,0.1314,0.1313,0.1316,0.1317,0.1334,0.1354,0.1322,0.1322,0.1357,0.1358,0.1359,0.1407,0,0,0,0,0,0,0.1331,0.1326,0.1324,0.1318,0.1317,0.1314,0.1307,0.1308,0.1314,0.1314,0.1316,0.1317,0.1316,0.1334,0.1335,0.1353,0.1322,0.1356,0.1357,0.1359,0.1404,0.1409,0.1414,0,0,0,0,0,0.1331,0.1326,0.1324,0.1322,0.1311,0.1315,0.1315,0.1318,0.1314,0.1319,0.1326,0.1317,0.1343,0.1335,0.1336,0.1355,0.1355,0.1357,0.1359,0.1402,0.1408,0.1414,0,0,0,0,0,0,0.1339,0.1326,0.1323,0.1313,0.1318,0.1315,0.1322,0.132,0.1328,0.1329,0.1328,0.133,0.1344,0.1346,0.1336,0.1369,0.1347,0.1349,0.138,0.1386,0.139,0.1412,0.1323,0,0,0,0,0,0.134,0.1333,0.1327,0.1323,0.1323,0.1323,0.1327,0.1327,0.1331,0.1334,0.1336,0.1343,0.1351,0.1366,0.1362,0.1391,0.141,0.1402,0.1407,0.1411,0.143,0.1465,0.1476,0.1365,0.1365,0.1365,0,0,0.1342,0.1336,0.1332,0.1326,0.1327,0.1344,0.1324,0.133,0.1353,0.1334,0.1361,0.1349,0.1356,0.138,0.1388,0.1389,0.1456,0.1413,0.1417,0.1434,0.1468,0.1479,0.1489,0.1366,0.1366,0.1366,0,0,0.1358,0.1336,0.1345,0.135,0.1356,0.1358,0.1362,0.136,0.1366,0.1387,0.1377,0.1388,0.1399,0.1416,0.1425,0.1458,0.1465,0.1449,0.1511,0.1545,0.1555,0.1564,0.1618,0.1631,0.1469,0.1469,0.1469,0,0.1371,0.1375,0.1351,0.1369,0.1387,0.1368,0.1399,0.14,0.1408,0.1428,0.1402,0.143,0.1422,0.1475,0.1483,0.1471,0.1497,0.1489,0.1553,0.1562,0.1571,0.1624,0.1638,0.1472,0.1472,0.1471,0.1471,0,0.1397,0.1409,0.1415,0.1434,0.1446,0.1464,0.1467,0.1482,0.1481,0.1489,0.1518,0.1504,0.1533,0.1522,0.1514,0.1571,0.1573,0.1541,0.1542,0.1585,0.1638,0.1652,0.1475,0.1474,0.1474,0.1473,0,0,0.1415,0.1434,0.144,0.1468,0.1485,0.1498,0.1537,0.1577,0.1617,0.1603,0.1661,0.1652,0.1639,0.1648,0.1632,0.1659,0.173,0.1633,0.1634,0.1694,0.183,0.195,0.1976,0.1709,0.1711,0.1713,0.185,0,0.1457,0.1502,0.1507,0.1566,0.1591,0.1601,0.1647,0.1675,0.169,0.1733,0.1721,0.1754,0.169,0.1709,0.1723,0.1721,0.1766,0.1698,0.1774,0.1777,0.1883,0.1996,0.1938,0.2067,0.1863,0.1866,0.1867,0,0.1492,0.1519,0.1577,0.1643,0.1658,0.1693,0.1768,0.1807,0.1856,0.187,0.1893,0.1881,0.192,0.1849,0.1895,0.1855,0.1858,0.185,0.1855,0.1963,0.1924,0.1987,0.2099,0.2032,0.1888,0.1887,0.1885,0,0.1511,0.1577,0.1628,0.1645,0.1707,0.1749,0.1793,0.1849,0.1896,0.1961,0.2007,0.2025,0.2063,0.2047,0.2045,0.1973,0.2109,0.2005,0.2123,0.2131,0.2099,0.2103,0.2163,0.2061,0.2061,0.206,0.206,0,0.1549,0.159,0.1641,0.1661,0.1736,0.1778,0.186,0.1907,0.1989,0.2053,0.2076,0.2144,0.2115,0.2179,0.2126,0.2215,0.2186,0.2182,0.2194,0.2118,0.2121,0.2074,0.2028,0.2066,0.2064,0.2063,0.2063,0,0.1547,0.1583,0.1635,0.1708,0.1736,0.1783,0.1882,0.1933,0.2033,0.2122,0.2155,0.2266,0.237,0.2378,0.2404,0.2371,0.2358,0.2439,0.2379,0.2383,0.2405,0.2364,0.2389,0.2307,0.2573,0.2578,0.2581,0,0.1547,0.1572,0.1641,0.1663,0.1693,0.1768,0.1811,0.1923,0.1981,0.2187,0.2231,0.2415,0.2498,0.2652,0.2663,0.2693,0.2542,0.267,0.2522,0.2466,0.2425,0.2278,0.2192,0.2485,0.2487,0.2489,0.2491,0,0.1536,0.1555,0.1585,0.163,0.1673,0.1729,0.1811,0.187,0.2013,0.2115,0.2274,0.2381,0.2619,0.2679,0.2828,0.281,0.2567,0.2716,0.2644,0.2394,0.2246,0.2152,0.2345,0.2508,0.2507,0.2505,0.2504,0.2504,0.151,0.152,0.1551,0.1591,0.1634,0.1677,0.1704,0.1803,0.1905,0.2061,0.222,0.237,0.2599,0.2809,0.2813,0.2842,0.273,0.2711,0.2679,0.2543,0.2439,0.2727,0.2915,0.2915,0.2916,0.2916,0.2917,0,0.1466,0.148,0.1511,0.1544,0.1557,0.1608,0.1686,0.1707,0.1785,0.1975,0.2105,0.2354,0.2523,0.2689,0.2841,0.2773,0.2564,0.27,0.2409,0.2328,0.2579,0.2551,0.2686,0.2686,0.2687,0.2687,0.2687,0.2687,0.144,0.144,0.1456,0.1456,0.1478,0.1481,0.1507,0.156,0.1677,0.184,0.1991,0.215,0.2482,0.2747,0.2772,0.2701,0.2431,0.2393,0.2326,0.2445,0.2438,0.2432,0.2393,0.2494,0.2493,0.1937,0.1933,0.193]},{"header":{"parameterUnit":"m.s-1","parameterCategory":2,"la1":30.2991,"la2":30.254,"lo1":-89.0895,"lo2":-89.0444,"dy":0.0017,"dx":0.0017,"nx":28,"ny":28,"refTime":"2025-09-12T03:00:00:Z","depth":"0","parameterNumber":3,"parameterNumberName":"V-component_of_CURRENTS"},"data":[0,0,0,0,0,0,0,0,0,0,0,0,0,0,0,0,0,0,0,0,0,0,0,0,0,0,0,0,0,0,0,0,0,0,0,0,0,0,0,0,0,0,0,0,0,0,0,0,0,0,0,0,0,0,0,0,0,0,-0.0831,-0.0831,0,-0.0931,-0.0932,-0.0934,-0.101,-0.1011,-0.1011,-0.1011,-0.1103,-0.1105,-0.1107,0,0,0,0,0,0,0,0,0,0,0,0,0,-0.0676,-0.0679,-0.0831,-0.0832,-0.0832,-0.093,-0.0932,-0.0934,-0.101,-0.1011,-0.1011,-0.1011,-0.1102,-0.1105,-0.1107,0,0,0,0,0,0,0,0,0,0,0,0,0,-0.076,-0.068,-0.0831,-0.0879,-0.0884,-0.093,-0.0932,-0.0934,-0.101,-0.1011,-0.1011,-0.1012,-0.1101,-0.1104,-0.1108,-0.1118,0,0,-0.1117,-0.1119,0,0,0,0,0,0,0,0,-0.0756,-0.0767,-0.0871,-0.0876,-0.0881,-0.0955,-0.0911,-0.0994,-0.101,-0.0967,-0.1011,-0.1012,-0.1049,-0.1057,-0.1081,-0.1122,-0.1126,-0.1118,-0.112,-0.1121,-0.1122,0,0,0,0,0,0,0,-0.075,-0.0763,-0.0875,-0.0872,-0.0878,-0.0885,-0.0898,-0.0927,-0.1007,-0.0971,-0.0975,-0.0979,-0.1053,-0.1078,-0.1084,-0.1128,-0.1118,-0.112,-0.1122,-0.1124,-0.1184,-0.1184,0,0,0,0,0,0,-0.073,-0.0758,-0.0872,-0.0877,-0.0813,-0.0887,-0.0902,-0.0934,-0.1008,-0.1018,-0.0979,-0.0983,-0.1072,-0.108,-0.1087,-0.1106,-0.1121,-0.1124,-0.1126,-0.1185,-0.1184,-0.1184,0,0,0,0,0,0,-0.0727,-0.0741,-0.0867,-0.0814,-0.083,-0.0889,-0.0924,-0.0936,-0.0951,-0.1013,-0.1024,-0.098,-0.1073,-0.1082,-0.1107,-0.111,-0.1125,-0.1128,-0.1185,-0.1185,-0.1184,-0.1142,0,0,0,0,0,0,-0.0723,-0.074,-0.075,-0.0814,-0.0832,-0.0879,-0.0924,-0.0937,-0.0951,-0.0956,-0.1017,-0.1027,-0.1074,-0.1102,-0.111,-0.1115,-0.1131,-0.1185,-0.1185,-0.1184,-0.1144,-0.1141,-0.1138,0,0,0,0,0,-0.0717,-0.0726,-0.0751,-0.0763,-0.0848,-0.0877,-0.0887,-0.0933,-0.095,-0.0949,-0.0996,-0.1025,-0.1104,-0.1104,-0.1114,-0.112,-0.1186,-0.1185,-0.1184,-0.1146,-0.1141,-0.1138,0,0,0,0,0,0,-0.0665,-0.0737,-0.0764,-0.0796,-0.0825,-0.0888,-0.0891,-0.0918,-0.0956,-0.0963,-0.102,-0.1033,-0.1058,-0.1087,-0.1085,-0.1134,-0.115,-0.1151,-0.1117,-0.1113,-0.111,-0.1078,-0.1134,0,0,0,0,0,-0.0657,-0.0686,-0.0743,-0.0765,-0.0777,-0.0829,-0.0844,-0.0875,-0.0917,-0.0935,-0.0976,-0.1022,-0.1065,-0.1085,-0.1123,-0.1144,-0.116,-0.1153,-0.1149,-0.1146,-0.1126,-0.1169,-0.1167,-0.1182,-0.1182,-0.1182,0,0,-0.0643,-0.0683,-0.0701,-0.0755,-0.0785,-0.0794,-0.0841,-0.0858,-0.0869,-0.0937,-0.0959,-0.1007,-0.1066,-0.11,-0.1113,-0.1123,-0.1147,-0.1145,-0.1143,-0.1124,-0.1168,-0.1167,-0.1165,-0.1181,-0.1181,-0.1181,0,0,-0.0609,-0.0663,-0.0665,-0.0687,-0.0721,-0.0758,-0.0753,-0.0806,-0.0834,-0.086,-0.0918,-0.096,-0.1014,-0.1067,-0.1099,-0.1092,-0.1126,-0.1106,-0.1069,-0.1111,-0.111,-0.1109,-0.1113,-0.1113,-0.1108,-0.1108,-0.1108,0,-0.0583,-0.0603,-0.0664,-0.0662,-0.0669,-0.0732,-0.072,-0.076,-0.0814,-0.0833,-0.0855,-0.0948,-0.1,-0.1051,-0.1059,-0.1085,-0.11,-0.1083,-0.1106,-0.1106,-0.1106,-0.1111,-0.1111,-0.1106,-0.1106,-0.1106,-0.1106,0,-0.0548,-0.0557,-0.0554,-0.0583,-0.0602,-0.0599,-0.0658,-0.068,-0.0719,-0.0763,-0.0811,-0.0889,-0.0942,-0.0975,-0.1019,-0.1051,-0.1057,-0.1096,-0.1116,-0.1102,-0.1107,-0.1109,-0.1103,-0.1103,-0.1104,-0.1104,0,0,-0.0498,-0.0524,-0.0519,-0.0507,-0.0557,-0.0561,-0.059,-0.0626,-0.063,-0.0704,-0.0716,-0.0814,-0.0858,-0.0895,-0.0963,-0.1006,-0.1028,-0.1046,-0.1049,-0.1045,-0.1091,-0.1034,-0.1031,-0.1078,-0.1079,-0.1079,-0.1089,0,-0.0441,-0.0404,-0.0448,-0.0413,-0.0394,-0.0465,-0.0477,-0.0527,-0.0579,-0.0609,-0.0712,-0.0748,-0.083,-0.0851,-0.0913,-0.1002,-0.1032,-0.1019,-0.1107,-0.1108,-0.1057,-0.1031,-0.0963,-0.0961,-0.109,-0.1091,-0.1091,0,-0.0385,-0.0363,-0.0314,-0.0312,-0.0312,-0.0306,-0.0333,-0.0355,-0.0437,-0.0482,-0.0558,-0.0633,-0.0719,-0.0781,-0.0918,-0.0908,-0.0982,-0.1049,-0.1052,-0.101,-0.1054,-0.0999,-0.096,-0.111,-0.1093,-0.1093,-0.1093,0,-0.0293,-0.027,-0.022,-0.022,-0.0233,-0.0225,-0.0238,-0.0303,-0.0305,-0.0393,-0.0396,-0.0534,-0.0566,-0.0709,-0.0857,-0.0889,-0.0986,-0.1053,-0.1064,-0.106,-0.1022,-0.1014,-0.1133,-0.1123,-0.1123,-0.1122,-0.1122,0,-0.0213,-0.0173,-0.0162,-0.013,-0.0067,-0.012,-0.0076,-0.0125,-0.0162,-0.0137,-0.0307,-0.0298,-0.0547,-0.0643,-0.0807,-0.0921,-0.095,-0.1032,-0.1057,-0.1003,-0.0993,-0.1138,-0.1234,-0.1123,-0.1123,-0.1123,-0.1123,0,-0.0128,-0.0124,-0.006,-0.0036,-0.0019,0.0025,0.0048,0.007,0.0019,0.0049,0.0034,-0.0107,-0.0223,-0.0454,-0.066,-0.0809,-0.1019,-0.0988,-0.0885,-0.0897,-0.1048,-0.1143,-0.1255,-0.1309,-0.1002,-0.1001,-0.1,0,-0.0089,-0.0039,0.0028,0.0076,0.0095,0.0155,0.0191,0.0163,0.0199,0.019,0.0224,0.0128,0.0084,-0.0202,-0.0477,-0.0728,-0.0922,-0.0845,-0.0899,-0.102,-0.1147,-0.1228,-0.1272,-0.0833,-0.083,-0.0828,-0.0827,0,-0.0003,0.0023,0.0078,0.0185,0.025,0.032,0.0386,0.0451,0.0437,0.0473,0.0524,0.0501,0.0271,0.0052,-0.0293,-0.0489,-0.0922,-0.0808,-0.0982,-0.1044,-0.1093,-0.1167,-0.0848,-0.0809,-0.081,-0.0812,-0.0813,-0.0813,0.0057,0.0116,0.0194,0.0291,0.037,0.0474,0.0552,0.0628,0.0723,0.0801,0.0778,0.0786,0.0467,0.0025,-0.0246,-0.0703,-0.075,-0.0867,-0.0974,-0.1047,-0.109,-0.0696,-0.0661,-0.0662,-0.0663,-0.0664,-0.0664,0,0.0133,0.0194,0.029,0.0407,0.0505,0.0528,0.0666,0.075,0.0888,0.0982,0.1038,0.0917,0.0534,0.009,-0.0497,-0.0828,-0.0986,-0.1042,-0.1175,-0.1217,-0.0902,-0.0886,-0.0838,-0.0838,-0.0838,-0.0838,-0.0838,-0.0838,0.0177,0.0279,0.0327,0.0499,0.0582,0.0721,0.0808,0.0939,0.1042,0.1181,0.1216,0.1204,0.0882,-0.0186,-0.0919,-0.1107,-0.1388,-0.1406,-0.1572,-0.1399,-0.1393,-0.1387,-0.1396,-0.1456,-0.1457,-0.1824,-0.1828,-0.1831]}],[{"header":{"parameterUnit":"m.s-1","parameterCategory":2,"la1":30.2991,"la2":30.254,"lo1":-89.0895,"lo2":-89.0444,"dy":0.0017,"dx":0.0017,"nx":28,"ny":28,"refTime":"2025-09-12T03:00:00:Z","depth":"2","parameterNumber":2,"parameterNumberName":"U-component_of_CURRENTS"},"data":[0,0,0,0,0,0,0,0,0,0,0,0,0,0,0,0,0,0,0,0,0,0,0,0,0,0,0,0,0,0,0,0,0,0,0,0,0,0,0,0,0,0,0,0,0,0,0,0,0,0,0,0,0,0,0,0,0,0,0.1581,0.1581,0,0.1608,0.1608,0.1609,0.1678,0.1679,0.168,0.1681,0.1736,0.1737,0.1737,0,0,0,0,0,0,0,0,0,0,0,0,0,0.1524,0.1525,0.1581,0.1581,0.1581,0.1608,0.1608,0.1609,0.1678,0.1679,0.168,0.1681,0.1736,0.1737,0.1737,0,0,0,0,0,0,0,0,0,0,0,0,0,0.1553,0.1526,0.1581,0.1616,0.1619,0.1607,0.1608,0.1609,0.1677,0.1679,0.168,0.1682,0.1736,0.1737,0.1737,0.1709,0,0,0.174,0.174,0,0,0,0,0,0,0,0,0.1552,0.1556,0.1611,0.1613,0.1616,0.1637,0.1608,0.1643,0.1677,0.1659,0.1681,0.1683,0.1702,0.1706,0.1713,0.1712,0.1714,0.174,0.174,0.174,0.174,0,0,0,0,0,0,0,0.155,0.1555,0.1596,0.161,0.1614,0.1606,0.1613,0.1615,0.1675,0.1661,0.1665,0.1661,0.1705,0.1712,0.1714,0.1715,0.174,0.174,0.1741,0.1741,0.1791,0.1791,0,0,0,0,0,0,0.154,0.1553,0.1595,0.1597,0.1583,0.1606,0.1614,0.1632,0.1675,0.1681,0.1659,0.1664,0.171,0.1713,0.1716,0.175,0.174,0.1741,0.1741,0.179,0.1791,0.1792,0,0,0,0,0,0,0.1539,0.1544,0.1594,0.1571,0.1576,0.1605,0.1625,0.1632,0.1631,0.1672,0.1681,0.165,0.1711,0.1716,0.1721,0.175,0.1741,0.1742,0.1789,0.179,0.1791,0.1776,0,0,0,0,0,0,0.1538,0.1545,0.1536,0.1571,0.1577,0.1596,0.1623,0.1631,0.1624,0.163,0.1666,0.1674,0.1713,0.1719,0.1721,0.1751,0.1742,0.1787,0.1789,0.1791,0.1775,0.1776,0.1778,0,0,0,0,0,0.1536,0.1528,0.1536,0.1539,0.1571,0.1595,0.1599,0.1626,0.1622,0.1629,0.1647,0.1673,0.1734,0.1719,0.1721,0.1753,0.1787,0.1789,0.1791,0.1775,0.1776,0.1778,0,0,0,0,0,0,0.1503,0.1535,0.1544,0.1548,0.1569,0.1606,0.1604,0.1607,0.1623,0.163,0.1657,0.1667,0.1692,0.1712,0.1695,0.1776,0.1774,0.1777,0.1761,0.1763,0.1764,0.1798,0.1743,0,0,0,0,0,0.1487,0.1494,0.1524,0.1528,0.1537,0.1559,0.1561,0.1587,0.1608,0.1617,0.1641,0.1673,0.1701,0.172,0.175,0.1767,0.1801,0.1799,0.18,0.1801,0.1832,0.1882,0.1891,0.1798,0.1798,0.1798,0,0,0.1478,0.1491,0.1497,0.152,0.154,0.1568,0.1568,0.1585,0.1617,0.1617,0.1657,0.1665,0.1702,0.1745,0.176,0.1765,0.1842,0.1803,0.1803,0.1836,0.1885,0.1895,0.1903,0.18,0.18,0.1799,0,0,0.1477,0.1477,0.149,0.1509,0.1533,0.1556,0.1553,0.1588,0.1614,0.163,0.1656,0.1672,0.1705,0.1756,0.1779,0.1795,0.1838,0.1812,0.1854,0.19,0.1909,0.1916,0.1956,0.1968,0.1822,0.1822,0.1822,0,0.1464,0.1491,0.1495,0.1518,0.1539,0.1549,0.1583,0.1607,0.164,0.1669,0.165,0.1715,0.1722,0.1795,0.181,0.18,0.1835,0.1839,0.1902,0.191,0.1919,0.1958,0.1971,0.1822,0.1822,0.1822,0.1822,0,0.1488,0.1505,0.1515,0.1558,0.1576,0.1605,0.1645,0.1671,0.1679,0.1709,0.176,0.1765,0.1817,0.1816,0.1814,0.1891,0.1898,0.1885,0.1895,0.1927,0.1966,0.198,0.1821,0.1821,0.1822,0.1822,0,0,0.1484,0.1527,0.1532,0.1561,0.1604,0.1629,0.1684,0.1746,0.1793,0.1809,0.1871,0.1892,0.1894,0.1922,0.1924,0.1959,0.2013,0.1952,0.1955,0.1988,0.2125,0.2135,0.215,0.2013,0.2016,0.2018,0.2123,0,0.151,0.1556,0.1577,0.1635,0.1665,0.1704,0.1757,0.1812,0.1849,0.191,0.1929,0.1976,0.1939,0.1956,0.1987,0.2008,0.2052,0.1986,0.2096,0.21,0.21,0.2168,0.1976,0.2056,0.2136,0.2139,0.214,0,0.1534,0.156,0.1613,0.1685,0.1706,0.1743,0.1837,0.189,0.1978,0.2008,0.2061,0.2075,0.2132,0.208,0.216,0.2123,0.2139,0.2145,0.2149,0.2183,0.2136,0.2042,0.2078,0.2163,0.2162,0.216,0.2158,0,0.1525,0.1594,0.1634,0.1656,0.1732,0.1777,0.1829,0.1918,0.1979,0.2077,0.2125,0.2186,0.223,0.2252,0.2272,0.2221,0.2365,0.2288,0.2321,0.232,0.2196,0.2182,0.2369,0.2369,0.2369,0.2369,0.2368,0,0.154,0.1575,0.1632,0.1652,0.1716,0.1779,0.1861,0.193,0.2035,0.2106,0.2174,0.2239,0.228,0.2357,0.2337,0.2398,0.2424,0.2365,0.2365,0.2184,0.2168,0.2291,0.2281,0.2372,0.2372,0.2371,0.237,0,0.1516,0.1554,0.16,0.1677,0.1705,0.1749,0.1862,0.1922,0.2039,0.2137,0.2172,0.2311,0.24,0.2459,0.2521,0.2503,0.2535,0.2554,0.2346,0.2321,0.2431,0.2418,0.2571,0.2573,0.2574,0.2575,0.2576,0,0.151,0.1525,0.1591,0.1613,0.1646,0.172,0.1766,0.1894,0.1961,0.216,0.2203,0.2363,0.2429,0.2573,0.2576,0.2604,0.2618,0.2469,0.2331,0.2476,0.246,0.2445,0.2431,0.2144,0.2141,0.2139,0.2137,0,0.1484,0.15,0.1528,0.1569,0.1612,0.1667,0.1754,0.1806,0.1957,0.2053,0.2186,0.2264,0.2431,0.2401,0.2515,0.2485,0.2438,0.2427,0.2657,0.2134,0.2084,0.2065,0.2063,0.2117,0.2119,0.2121,0.2122,0.2123,0.1453,0.1459,0.1487,0.1524,0.1566,0.1606,0.1632,0.1729,0.1819,0.195,0.2074,0.2146,0.2233,0.2284,0.2253,0.225,0.2379,0.2267,0.2268,0.2272,0.2216,0.2173,0.2212,0.2214,0.2216,0.2218,0.222,0,0.1404,0.1419,0.1448,0.1479,0.149,0.1542,0.1612,0.1625,0.1682,0.1815,0.1906,0.1831,0.187,0.1952,0.1912,0.1951,0.1864,0.1882,0.1734,0.1758,0.1778,0.1689,0.1549,0.1547,0.1544,0.1542,0,0,0.138,0.1377,0.1391,0.139,0.1414,0.1412,0.143,0.146,0.1536,0.1567,0.1605,0.1782,0.1894,0.168,0.1688,0.1606,0.1652,0.1551,0.2097,0.1946,0.1962,0.2026,0.1922,0,0,0,0,0]},{"header":{"parameterUnit":"m.s-1","parameterCategory":2,"la1":30.2991,"la2":30.254,"lo1":-89.0895,"lo2":-89.0444,"dy":0.0017,"dx":0.0017,"nx":28,"ny":28,"refTime":"2025-09-12T03:00:00:Z","depth":"2","parameterNumber":3,"parameterNumberName":"V-component_of_CURRENTS"},"data":[0,0,0,0,0,0,0,0,0,0,0,0,0,0,0,0,0,0,0,0,0,0,0,0,0,0,0,0,0,0,0,0,0,0,0,0,0,0,0,0,0,0,0,0,0,0,0,0,0,0,0,0,0,0,0,0,0,0,-0.0206,-0.0207,0,-0.0278,-0.0278,-0.0279,-0.0297,-0.0297,-0.0297,-0.0297,-0.0384,-0.0386,-0.0389,0,0,0,0,0,0,0,0,0,0,0,0,0,-0.0213,-0.0211,-0.0206,-0.0207,-0.0208,-0.0278,-0.0278,-0.0279,-0.0297,-0.0297,-0.0297,-0.0297,-0.0383,-0.0386,-0.0389,0,0,0,0,0,0,0,0,0,0,0,0,0,-0.0234,-0.021,-0.0205,-0.023,-0.0233,-0.0278,-0.0278,-0.0279,-0.0297,-0.0297,-0.0297,-0.0297,-0.0382,-0.0386,-0.0389,-0.0408,0,0,-0.04,-0.0401,0,0,0,0,0,0,0,0,-0.0232,-0.0233,-0.0225,-0.0228,-0.0232,-0.0283,-0.0313,-0.0325,-0.0297,-0.0267,-0.0297,-0.0297,-0.0355,-0.0361,-0.0366,-0.0412,-0.0416,-0.04,-0.0402,-0.0403,-0.0404,0,0,0,0,0,0,0,-0.0231,-0.0231,-0.0228,-0.0227,-0.0231,-0.0282,-0.0283,-0.0315,-0.0306,-0.0269,-0.0272,-0.0289,-0.0357,-0.0363,-0.0369,-0.0417,-0.04,-0.0403,-0.0405,-0.0406,-0.0477,-0.0477,0,0,0,0,0,0,-0.0226,-0.0228,-0.0226,-0.0231,-0.0239,-0.0282,-0.0283,-0.0262,-0.0305,-0.0313,-0.0289,-0.029,-0.0357,-0.0365,-0.0372,-0.0412,-0.0403,-0.0406,-0.0408,-0.0477,-0.0477,-0.0477,0,0,0,0,0,0,-0.0225,-0.0223,-0.0223,-0.0239,-0.0243,-0.0281,-0.0258,-0.0264,-0.0297,-0.0321,-0.0328,-0.032,-0.0357,-0.0367,-0.0416,-0.0415,-0.0408,-0.0411,-0.0477,-0.0477,-0.0477,-0.0484,0,0,0,0,0,0,-0.0224,-0.0221,-0.0225,-0.0237,-0.0242,-0.0259,-0.0259,-0.0265,-0.0308,-0.031,-0.035,-0.0356,-0.0358,-0.0411,-0.0419,-0.042,-0.0414,-0.0478,-0.0477,-0.0477,-0.0484,-0.0484,-0.0484,0,0,0,0,0,-0.0223,-0.023,-0.0223,-0.0225,-0.0236,-0.026,-0.0267,-0.0293,-0.031,-0.0323,-0.0352,-0.0356,-0.0414,-0.0415,-0.0424,-0.0426,-0.0478,-0.0477,-0.0477,-0.0484,-0.0484,-0.0484,0,0,0,0,0,0,-0.0242,-0.0233,-0.0226,-0.023,-0.0247,-0.0266,-0.0288,-0.0312,-0.0345,-0.0345,-0.0374,-0.0383,-0.0408,-0.0425,-0.0426,-0.0441,-0.0439,-0.044,-0.044,-0.0441,-0.0441,-0.0413,-0.0417,0,0,0,0,0,-0.0243,-0.024,-0.0243,-0.0249,-0.025,-0.0274,-0.0297,-0.0305,-0.0332,-0.0347,-0.0372,-0.0393,-0.041,-0.0436,-0.044,-0.0479,-0.0483,-0.0478,-0.0478,-0.0478,-0.0461,-0.0478,-0.0478,-0.0476,-0.0476,-0.0476,0,0,-0.0243,-0.0253,-0.0243,-0.0254,-0.0261,-0.0258,-0.0285,-0.0307,-0.0306,-0.0352,-0.0366,-0.0393,-0.0416,-0.0433,-0.0447,-0.0457,-0.0483,-0.0478,-0.0478,-0.046,-0.0477,-0.0478,-0.0478,-0.0476,-0.0476,-0.0476,0,0,-0.0246,-0.0249,-0.0237,-0.024,-0.0259,-0.0275,-0.0288,-0.0302,-0.0307,-0.0332,-0.0349,-0.0398,-0.0421,-0.0445,-0.046,-0.0475,-0.0471,-0.0461,-0.0461,-0.0479,-0.0479,-0.0479,-0.0496,-0.0498,-0.0477,-0.0477,-0.0477,0,-0.0253,-0.0222,-0.0246,-0.0235,-0.0229,-0.0281,-0.0254,-0.0276,-0.0309,-0.0306,-0.0329,-0.0377,-0.0424,-0.0453,-0.0455,-0.0477,-0.0472,-0.0464,-0.0479,-0.0479,-0.048,-0.0497,-0.0499,-0.0478,-0.0478,-0.0478,-0.0478,0,-0.022,-0.0204,-0.0201,-0.0188,-0.0199,-0.0188,-0.0203,-0.0224,-0.0251,-0.0262,-0.0285,-0.0355,-0.0384,-0.0413,-0.0447,-0.0467,-0.0458,-0.0467,-0.0481,-0.048,-0.0499,-0.05,-0.0478,-0.0478,-0.0478,-0.0478,0,0,-0.0191,-0.0173,-0.0171,-0.0143,-0.0155,-0.0158,-0.0162,-0.0165,-0.0169,-0.0214,-0.021,-0.0289,-0.0329,-0.0349,-0.0408,-0.0452,-0.0486,-0.046,-0.0461,-0.0479,-0.0508,-0.0479,-0.0478,-0.0485,-0.0486,-0.0486,-0.0525,0,-0.0145,-0.0104,-0.0111,-0.0074,-0.0037,-0.0068,-0.0067,-0.0086,-0.0116,-0.0135,-0.0208,-0.0237,-0.0302,-0.0338,-0.0384,-0.0451,-0.0486,-0.0473,-0.0502,-0.0503,-0.0479,-0.0478,-0.0461,-0.0491,-0.0527,-0.0527,-0.0527,0,-0.0089,-0.0068,-0.0004,0.0019,0.0033,0.0034,0.0034,0.0027,-0.0015,-0.0038,-0.0088,-0.014,-0.0227,-0.028,-0.0385,-0.0363,-0.0424,-0.0484,-0.0486,-0.0451,-0.0476,-0.0494,-0.0493,-0.053,-0.053,-0.053,-0.0529,0,-0.0033,0.0005,0.0058,0.0077,0.0089,0.0107,0.0095,0.0067,0.0085,0.0014,0.0011,-0.0084,-0.0129,-0.022,-0.0354,-0.036,-0.0451,-0.048,-0.0508,-0.0507,-0.0493,-0.049,-0.053,-0.053,-0.053,-0.053,-0.053,0,0.0032,0.0069,0.009,0.0127,0.0183,0.0168,0.0207,0.0171,0.0158,0.019,0.0066,0.0071,-0.0109,-0.0184,-0.031,-0.0407,-0.0416,-0.0493,-0.0509,-0.0496,-0.0493,-0.0522,-0.0521,-0.0531,-0.0531,-0.0531,-0.0531,0,0.0087,0.0103,0.0166,0.0201,0.0218,0.0254,0.0293,0.0312,0.0275,0.031,0.0292,0.02,0.0105,-0.0071,-0.023,-0.0335,-0.0457,-0.0487,-0.0461,-0.0472,-0.0512,-0.0511,-0.0516,-0.0515,-0.0515,-0.0514,-0.0514,0,0.0116,0.0161,0.0228,0.027,0.0292,0.0345,0.0383,0.0372,0.0408,0.0408,0.0441,0.0357,0.0316,0.0084,-0.0136,-0.0344,-0.0389,-0.0456,-0.0472,-0.0492,-0.0508,-0.0508,-0.0507,-0.0472,-0.0471,-0.0471,-0.047,0,0.0181,0.0204,0.0255,0.035,0.0406,0.0474,0.0534,0.059,0.059,0.0616,0.0651,0.0616,0.0413,0.0208,-0.0081,-0.0222,-0.0429,-0.0444,-0.0476,-0.0465,-0.045,-0.0466,-0.0467,-0.0464,-0.0465,-0.0465,-0.0466,-0.0466,0.0222,0.0272,0.0342,0.0428,0.0498,0.059,0.066,0.0726,0.0803,0.0856,0.0827,0.0783,0.0534,0.0191,-0.0066,-0.0337,-0.0327,-0.0439,-0.0442,-0.0445,-0.0419,-0.0403,-0.0404,-0.0404,-0.0404,-0.0404,-0.0404,0,0.0277,0.033,0.0413,0.0517,0.0602,0.0629,0.0751,0.0822,0.0927,0.0971,0.0991,0.0783,0.054,0.0266,-0.0122,-0.036,-0.041,-0.0432,-0.0452,-0.0455,-0.0458,-0.0435,-0.0423,-0.0424,-0.0425,-0.0425,0,0,0.0309,0.0395,0.0439,0.0587,0.066,0.0786,0.0862,0.0963,0.1028,0.1083,0.1065,0.0988,0.0642,0.0363,0.003,-0.0192,-0.027,-0.0238,-0.0198,-0.0186,-0.0186,-0.0437,-0.0401,0,0,0,0,0]}],[{"header":{"parameterUnit":"m.s-1","parameterCategory":2,"la1":30.2991,"la2":30.254,"lo1":-89.0895,"lo2":-89.0444,"dy":0.0017,"dx":0.0017,"nx":28,"ny":28,"refTime":"2025-09-12T03:00:00:Z","depth":"4","parameterNumber":2,"parameterNumberName":"U-component_of_CURRENTS"},"data":[0,0,0,0,0,0,0,0,0,0,0,0,0,0,0,0,0,0,0,0,0,0,0,0,0,0,0,0,0,0,0,0,0,0,0,0,0,0,0,0,0,0,0,0,0,0,0,0,0,0,0,0,0,0,0,0,0,0,0.0952,0.0953,0,0.1024,0.1024,0.1025,0.1072,0.1072,0.1073,0.1073,0.1149,0.1151,0.1152,0,0,0,0,0,0,0,0,0,0,0,0,0,0.0846,0.0847,0.0952,0.0953,0.0954,0.1024,0.1024,0.1025,0.1072,0.1072,0.1073,0.1073,0.1149,0.1151,0.1153,0,0,0,0,0,0,0,0,0,0,0,0,0,0.09,0.0848,0.0952,0.0987,0.0991,0.1023,0.1024,0.1025,0.1071,0.1072,0.1073,0.1073,0.1148,0.1151,0.1153,0.1154,0,0,0.116,0.1161,0,0,0,0,0,0,0,0,0.0897,0.0904,0.098,0.0984,0.0989,0.1041,0.1015,0.1069,0.1071,0.1039,0.1073,0.1074,0.1114,0.1119,0.1129,0.1158,0.1161,0.1161,0.1162,0.1163,0.1164,0,0,0,0,0,0,0,0.0893,0.0901,0.0978,0.0981,0.0987,0.0996,0.1004,0.1025,0.1071,0.1042,0.1046,0.1056,0.1116,0.1126,0.1131,0.1162,0.116,0.1163,0.1164,0.1165,0.1272,0.1273,0,0,0,0,0,0,0.0888,0.0898,0.0976,0.0981,0.0946,0.0997,0.1007,0.1022,0.107,0.1079,0.1056,0.1058,0.1122,0.1128,0.1134,0.12,0.1163,0.1165,0.1167,0.1271,0.1272,0.1274,0,0,0,0,0,0,0.0885,0.0894,0.0973,0.0942,0.0953,0.0999,0.1015,0.1023,0.1058,0.1081,0.109,0.1086,0.1123,0.1131,0.1179,0.1201,0.1166,0.1169,0.1269,0.1271,0.1273,0.1293,0,0,0,0,0,0,0.0882,0.0893,0.0911,0.0942,0.0954,0.1003,0.1015,0.1024,0.1063,0.1068,0.1109,0.1116,0.1124,0.1175,0.1181,0.1204,0.117,0.1267,0.127,0.1272,0.1291,0.1296,0.13,0,0,0,0,0,0.0878,0.0896,0.0911,0.0922,0.0975,0.1004,0.1012,0.1045,0.1064,0.1079,0.1116,0.1116,0.1196,0.1178,0.1185,0.1209,0.1266,0.1269,0.1272,0.1289,0.1295,0.13,0,0,0,0,0,0,0.0859,0.0903,0.0921,0.0952,0.0982,0.1013,0.1038,0.1058,0.1099,0.1113,0.1134,0.1143,0.1193,0.1201,0.1181,0.1249,0.1231,0.1236,0.1241,0.1247,0.1252,0.1257,0.1172,0,0,0,0,0,0.0862,0.089,0.0927,0.0954,0.0974,0.101,0.1032,0.1053,0.1088,0.1108,0.1136,0.1172,0.1207,0.1228,0.1254,0.1291,0.1308,0.1312,0.1316,0.132,0.133,0.138,0.139,0.1284,0.1284,0.1284,0,0,0.0859,0.0891,0.0905,0.0952,0.0983,0.1013,0.1026,0.1064,0.1092,0.1109,0.1164,0.119,0.1221,0.1264,0.1287,0.1276,0.1359,0.1324,0.1327,0.1335,0.1384,0.1395,0.1404,0.1286,0.1286,0.1285,0,0,0.0864,0.0902,0.0926,0.0955,0.1005,0.1028,0.1044,0.1087,0.1115,0.1161,0.1187,0.1231,0.1276,0.1305,0.1325,0.1372,0.1382,0.1382,0.1409,0.1457,0.1466,0.1474,0.1504,0.1515,0.1383,0.1383,0.1383,0,0.0865,0.0902,0.0936,0.0968,0.1,0.1038,0.1071,0.11,0.1151,0.1179,0.1182,0.1269,0.1295,0.1355,0.1377,0.1382,0.1408,0.1382,0.1462,0.1471,0.1479,0.1508,0.1519,0.1384,0.1384,0.1384,0.1384,0,0.088,0.0922,0.0942,0.0999,0.1031,0.1068,0.1111,0.1146,0.1183,0.1211,0.1277,0.1313,0.1364,0.138,0.1397,0.1469,0.1468,0.1461,0.1445,0.1491,0.1518,0.153,0.1386,0.1385,0.1385,0.1385,0,0,0.0863,0.0939,0.095,0.0988,0.1056,0.1085,0.1135,0.1191,0.1234,0.1274,0.1335,0.139,0.1411,0.1436,0.1461,0.1507,0.1585,0.1516,0.1518,0.1539,0.1689,0.157,0.1571,0.1597,0.1599,0.1601,0.1683,0,0.0875,0.0937,0.0972,0.1038,0.1081,0.1129,0.1171,0.1223,0.1273,0.1336,0.1379,0.1447,0.1431,0.1475,0.1512,0.1579,0.1619,0.1563,0.1647,0.165,0.1533,0.1581,0.1609,0.1691,0.1694,0.1696,0.1697,0,0.0883,0.0933,0.0998,0.1076,0.1099,0.1138,0.1226,0.1267,0.1349,0.1391,0.1448,0.149,0.1572,0.1556,0.1656,0.1625,0.1662,0.1697,0.1701,0.1592,0.1552,0.1639,0.1718,0.1716,0.1715,0.1714,0.1712,0,0.0869,0.0949,0.1008,0.1037,0.1126,0.1166,0.1212,0.1289,0.1336,0.1446,0.1494,0.157,0.1629,0.1686,0.1735,0.172,0.1839,0.1821,0.174,0.1732,0.1805,0.1796,0.1895,0.1894,0.1894,0.1894,0.1894,0,0.0873,0.0925,0.101,0.105,0.1114,0.1174,0.1249,0.1301,0.139,0.1451,0.1525,0.158,0.1671,0.1734,0.177,0.1777,0.1858,0.1756,0.175,0.181,0.1801,0.1813,0.1802,0.1897,0.1896,0.1896,0.1895,0,0.0858,0.0914,0.0988,0.1085,0.1116,0.1166,0.1265,0.1308,0.1397,0.1485,0.1529,0.1622,0.1699,0.1756,0.1862,0.1807,0.1847,0.183,0.189,0.1884,0.1702,0.1692,0.1756,0.1752,0.1749,0.1747,0.1745,0,0.0854,0.0895,0.1006,0.1044,0.1096,0.1175,0.1217,0.131,0.1358,0.1491,0.1524,0.1633,0.1685,0.172,0.1788,0.1832,0.1811,0.1807,0.1752,0.1703,0.1692,0.1686,0.168,0.174,0.174,0.1739,0.1738,0,0.0853,0.0901,0.0959,0.1032,0.109,0.1147,0.122,0.1248,0.1351,0.1443,0.15,0.1544,0.1615,0.1666,0.1699,0.1728,0.1798,0.1777,0.1782,0.1731,0.1685,0.1675,0.1673,0.1728,0.1729,0.173,0.1731,0,0.0847,0.0876,0.0948,0.1003,0.1067,0.1097,0.1144,0.1199,0.1254,0.139,0.141,0.1515,0.1609,0.1613,0.1652,0.166,0.1641,0.1587,0.1603,0.1614,0.1526,0.1445,0.142,0,0,0,0,0,0.0831,0.0855,0.0906,0.0959,0.1016,0.1053,0.1132,0.1176,0.1276,0.1288,0.1346,0.141,0.1458,0.1509,0.1491,0.159,0.1644,0.1561,0.1589,0.1672,0.1684,0.1591,0,0,0,0,0,0,0.0818,0.0871,0.0888,0.0907,0.093,0.0982,0.1028,0.1094,0.1107,0.1214,0.125,0.133,0.1399,0.1462,0.1468,0.1483,0.1473,0.1627,0.1624,0.1666,0.1676,0.1685,0.1594,0,0,0,0,0]},{"header":{"parameterUnit":"m.s-1","parameterCategory":2,"la1":30.2991,"la2":30.254,"lo1":-89.0895,"lo2":-89.0444,"dy":0.0017,"dx":0.0017,"nx":28,"ny":28,"refTime":"2025-09-12T03:00:00:Z","depth":"4","parameterNumber":3,"parameterNumberName":"V-component_of_CURRENTS"},"data":[0,0,0,0,0,0,0,0,0,0,0,0,0,0,0,0,0,0,0,0,0,0,0,0,0,0,0,0,0,0,0,0,0,0,0,0,0,0,0,0,0,0,0,0,0,0,0,0,0,0,0,0,0,0,0,0,0,0,0.0301,0.0301,0,0.0264,0.0263,0.0263,0.024,0.024,0.024,0.024,0.0184,0.0182,0.0181,0,0,0,0,0,0,0,0,0,0,0,0,0,0.0315,0.0315,0.0301,0.0301,0.03,0.0264,0.0263,0.0263,0.024,0.024,0.024,0.024,0.0184,0.0183,0.0181,0,0,0,0,0,0,0,0,0,0,0,0,0,0.0296,0.0315,0.0301,0.0285,0.0283,0.0264,0.0263,0.0263,0.024,0.024,0.024,0.024,0.0185,0.0183,0.0181,0.0169,0,0,0.0174,0.0173,0,0,0,0,0,0,0,0,0.0297,0.0295,0.0288,0.0286,0.0284,0.0257,0.0247,0.0231,0.024,0.0256,0.024,0.024,0.0207,0.0203,0.0196,0.0166,0.0164,0.0174,0.0173,0.0172,0.0171,0,0,0,0,0,0,0,0.0298,0.0296,0.0286,0.0288,0.0285,0.0267,0.0264,0.0244,0.0232,0.0254,0.0253,0.025,0.0206,0.0198,0.0194,0.0163,0.0174,0.0172,0.0171,0.017,0.0135,0.0135,0,0,0,0,0,0,0.0306,0.0298,0.0287,0.0285,0.0291,0.0267,0.0264,0.0265,0.0232,0.0227,0.025,0.0249,0.0201,0.0197,0.0192,0.0203,0.0172,0.017,0.0168,0.0134,0.0135,0.0135,0,0,0,0,0,0,0.0307,0.0306,0.0288,0.0291,0.0287,0.0267,0.0268,0.0265,0.0261,0.0229,0.0224,0.0251,0.0201,0.0195,0.0182,0.02,0.0169,0.0167,0.0134,0.0134,0.0135,0.0209,0,0,0,0,0,0,0.0307,0.0306,0.0311,0.0291,0.0287,0.0285,0.0269,0.0264,0.0259,0.0258,0.0228,0.0222,0.0201,0.0186,0.018,0.0197,0.0165,0.0133,0.0134,0.0135,0.0206,0.0212,0.0217,0,0,0,0,0,0.0308,0.0313,0.0312,0.0311,0.0295,0.0285,0.0282,0.0266,0.026,0.0261,0.0243,0.0223,0.0186,0.0184,0.0177,0.0194,0.0133,0.0134,0.0135,0.0204,0.0211,0.0217,0,0,0,0,0,0,0.0315,0.0311,0.0309,0.0311,0.0304,0.0282,0.028,0.0271,0.0258,0.0256,0.0227,0.022,0.0215,0.0191,0.019,0.0184,0.0157,0.0156,0.0211,0.0218,0.0223,0.0238,0.0163,0,0,0,0,0,0.0322,0.0329,0.0318,0.0321,0.0319,0.0302,0.0297,0.0288,0.0272,0.0267,0.0247,0.0226,0.0212,0.0205,0.0184,0.0182,0.0152,0.0187,0.0192,0.0197,0.0204,0.018,0.0184,0.0138,0.0138,0.0138,0,0,0.0325,0.0324,0.0327,0.0324,0.0316,0.0317,0.0299,0.0295,0.0297,0.0262,0.026,0.0242,0.0214,0.0212,0.0208,0.0197,0.0192,0.0198,0.0203,0.0207,0.0181,0.0186,0.019,0.0138,0.0138,0.0138,0,0,0.0333,0.0336,0.0343,0.0341,0.0336,0.0329,0.0332,0.0318,0.0315,0.0309,0.0289,0.0287,0.0255,0.0251,0.0241,0.0263,0.022,0.0252,0.0296,0.0274,0.0278,0.0281,0.0241,0.024,0.0258,0.0259,0.0259,0,0.0337,0.0342,0.0343,0.0347,0.0347,0.0339,0.0344,0.0341,0.0325,0.0331,0.0315,0.0297,0.0276,0.0287,0.0297,0.0278,0.0247,0.0278,0.0283,0.0285,0.0287,0.0245,0.0243,0.0262,0.0262,0.0262,0.0261,0,0.0346,0.0352,0.0355,0.0363,0.0368,0.0369,0.037,0.0378,0.0373,0.0371,0.0379,0.0357,0.0348,0.0346,0.0328,0.0341,0.0307,0.0291,0.027,0.0296,0.025,0.0246,0.0268,0.0266,0.0265,0.0264,0,0,0.034,0.0359,0.0357,0.0367,0.0376,0.0379,0.0399,0.0412,0.0427,0.0423,0.0437,0.0433,0.0429,0.0418,0.0403,0.0393,0.0381,0.0354,0.0351,0.0321,0.0313,0.0252,0.0242,0.0363,0.0364,0.0364,0.0273,0,0.0341,0.0355,0.0367,0.0384,0.0389,0.0404,0.0423,0.0441,0.0448,0.046,0.0463,0.0461,0.0453,0.0449,0.0446,0.0393,0.0376,0.0406,0.0286,0.0282,0.0231,0.0238,0.0364,0.027,0.0269,0.0268,0.0268,0,0.0334,0.0346,0.0362,0.0395,0.0401,0.0416,0.0451,0.0468,0.0495,0.05,0.052,0.0508,0.0512,0.0487,0.0434,0.045,0.0391,0.0349,0.0344,0.0261,0.0215,0.0238,0.0261,0.0262,0.0262,0.0263,0.0263,0,0.0313,0.0339,0.0356,0.0363,0.04,0.0421,0.0444,0.0479,0.05,0.0524,0.0531,0.0537,0.0521,0.0475,0.0401,0.041,0.0318,0.0314,0.0204,0.0198,0.0248,0.0246,0.0266,0.0266,0.0266,0.0266,0.0267,0,0.0297,0.0309,0.0348,0.0353,0.0389,0.0415,0.0455,0.0482,0.0513,0.0541,0.0549,0.055,0.0515,0.0463,0.0401,0.0287,0.0313,0.0209,0.0174,0.0279,0.0281,0.0245,0.0243,0.0263,0.0264,0.0264,0.0265,0,0.0271,0.029,0.0316,0.0359,0.0379,0.0405,0.0466,0.0497,0.0517,0.0549,0.0554,0.0548,0.0476,0.042,0.0322,0.0268,0.0173,0.0121,0.0224,0.0196,0.0068,0.0072,-0.0003,-0.0006,-0.0009,-0.0011,-0.0012,0,0.026,0.0267,0.0322,0.0351,0.0374,0.0419,0.0458,0.0498,0.0532,0.0542,0.0556,0.0494,0.0478,0.0308,0.0237,0.0101,0.0082,0.003,0.0073,0.0069,0.0042,0.005,0.0056,-0.0016,-0.0017,-0.0017,-0.0018,0,0.0246,0.0267,0.0297,0.0355,0.0399,0.0454,0.0507,0.0525,0.0566,0.0574,0.055,0.0474,0.038,0.0281,0.0164,0.0073,0.0071,0.0005,0.001,0.005,0.0052,0.003,0.0039,-0.0026,-0.0025,-0.0024,-0.0024,0,0.0247,0.0271,0.0315,0.0371,0.0428,0.0482,0.0507,0.0541,0.0566,0.0575,0.0553,0.0466,0.0421,0.026,0.0156,0.0056,0.0036,0.002,0.0024,0.0032,0.0072,0.0082,-0.0019,0,0,0,0,0,0.0249,0.0283,0.0333,0.0399,0.0455,0.0494,0.0546,0.0567,0.0588,0.0574,0.0567,0.048,0.0316,0.0251,0.0139,0.0104,0.0014,-0.0034,-0.0003,-0.0072,-0.0063,-0.0027,0,0,0,0,0,0,0.0254,0.0299,0.0332,0.0413,0.0463,0.0531,0.0567,0.058,0.0577,0.0574,0.0495,0.0446,0.0296,0.0386,0.0138,0.0104,0.0105,-0.0108,-0.0111,-0.0078,-0.0069,-0.0061,-0.0021,0,0,0,0,0]}]]